Location: Arthez
(43.0833°N, 0.2500°W)
Time: 00:58:54
(UTC+00:00)

Cosmos 1908 - Pass Details

Date: 23 October 2021
Orbit: 509 x 528 km, 82.5° (Epoch: 06 December)

Event Time Altitude Azimuth Distance (km) Brightness Sun altitude
Rises 17:36:29 0° 190° (S) 2,647 7.1 -6.4°
Reaches altitude 10° 17:38:37 10° 191° (SSW) 1,761 6.2 -6.7°
Maximum altitude 17:42:29 78° 278° (W) 540 3.4 -7.4°
Drops below altitude 10° 17:46:22 10° 6° (N) 1,766 5.8 -8.1°
Sets 17:48:30 0° 7° (N) 2,655 6.7 -8.5°
